User: anonymous   Login
Location: Unspecified
(0.0000°N, 0.0000°E)
Time: 10:50:43
(UTC+00:00)
Language:

STARLINK-11269 [DTC] - Orbit

View from above orbital plane
View from above orbital plane
View from above satellite
View from above satellite

Ground track
Ground track

The orbit is defined by the following mean orbital elements,

1 60995U          26145.04388588 +.00000000 +00000-0 +69781-5 0 00000
2 60995  53.1600 265.1020 0001188  83.4296 276.6857 15.69713535    08
Epoch (UTC): 25 May 2026 01:03:11
Eccentricity: 0.0001188
inclination: 53.1600°
perigee height: 359 km
apogee height: 361 km
right ascension of ascending node: 265.1020°
argument of perigee: 83.4296°
revolutions per day: 15.69713535
mean anomaly at epoch: 276.6857°

The dashed part of the orbit path shows where the satellite is in the earth's shadow,  

DLR